Time,TemperatureF,DewpointF,PressureIn,WindDirection,WindDirectionDegrees,WindSpeedMPH,WindSpeedGustMPH,Humidity,HourlyPrecipIn,Conditions,Clouds,dailyrainin,SoftwareType,DateUTC
2013-01-23 00:05:00,36.1,32.4,29.56,SSE,152,0.0,4.0,86,0.00,,,0.00,Weather View 32 v70,2013-01-23 08:05:00,
2013-01-23 00:15:00,36.3,32.5,29.56,SSE,152,0.0,4.0,86,0.00,,,0.00,Weather View 32 v70,2013-01-23 08:15:00,
2013-01-23 00:20:00,36.3,32.5,29.56,SSE,152,0.0,4.0,86,0.00,,,0.00,Weather View 32 v70,2013-01-23 08:20:00,
2013-01-23 00:29:00,36.3,32.5,29.59,SSE,152,0.0,4.0,86,0.00,,,0.00,Weather View 32 v70,2013-01-23 08:29:00,
2013-01-23 00:35:00,36.3,32.5,29.59,SSE,152,2.0,4.0,86,0.00,,,0.00,Weather View 32 v70,2013-01-23 08:35:00,
2013-01-23 00:40:00,36.3,32.5,29.59,SSE,152,0.0,4.0,86,0.00,,,0.00,Weather View 32 v70,2013-01-23 08:40:00,
2013-01-23 00:45:00,36.3,32.5,29.59,SSE,152,0.0,4.0,86,0.00,,,0.00,Weather View 32 v70,2013-01-23 08:45:00,
2013-01-23 00:54:00,36.3,32.5,29.59,SSE,152,0.0,4.0,86,0.00,,,0.00,Weather View 32 v70,2013-01-23 08:54:00,
2013-01-23 00:59:00,36.3,32.5,29.59,SSE,152,0.0,4.0,86,0.00,,,0.00,Weather View 32 v70,2013-01-23 08:59:00,
2013-01-23 01:05:00,36.1,32.4,29.59,SSE,152,3.0,3.0,86,0.00,,,0.00,Weather View 32 v70,2013-01-23 09:05:00,
2013-01-23 01:10:00,36.3,32.5,29.56,SSE,152,0.0,3.0,86,0.00,,,0.00,Weather View 32 v70,2013-01-23 09:10:00,
2013-01-23 01:19:00,36.3,32.8,29.56,SE,145,3.0,5.0,87,0.00,,,0.00,Weather View 32 v70,2013-01-23 09:19:00,
2013-01-23 01:25:00,36.1,32.4,29.56,SE,145,3.0,5.0,86,0.00,,,0.00,Weather View 32 v70,2013-01-23 09:25:00,
2013-01-23 01:35:00,36.1,32.6,29.56,NE,44,3.0,5.0,87,0.00,,,0.00,Weather View 32 v70,2013-01-23 09:35:00,
2013-01-23 01:44:00,36.1,32.6,29.56,NE,45,0.0,5.0,87,0.00,,,0.00,Weather View 32 v70,2013-01-23 09:44:00,
2013-01-23 01:49:00,36.1,32.6,29.56,NE,45,0.0,5.0,87,0.00,,,0.00,Weather View 32 v70,2013-01-23 09:49:00,
2013-01-23 01:55:00,36.1,32.6,29.59,NE,45,0.0,5.0,87,0.00,,,0.00,Weather View 32 v70,2013-01-23 09:55:00,
2013-01-23 02:00:00,36.1,32.6,29.59,NE,45,3.0,5.0,87,0.00,,,0.00,Weather View 32 v70,2013-01-23 10:00:00,
2013-01-23 02:05:00,36.3,32.8,29.59,NE,46,0.0,5.0,87,0.00,,,0.00,Weather View 32 v70,2013-01-23 10:05:00,
2013-01-23 02:15:00,36.1,32.6,29.59,SE,145,0.0,5.0,87,0.00,,,0.00,Weather View 32 v70,2013-01-23 10:15:00,
2013-01-23 02:20:00,36.3,32.8,29.59,SE,144,0.0,4.0,87,0.00,,,0.00,Weather View 32 v70,2013-01-23 10:20:00,
2013-01-23 02:25:00,36.3,32.8,29.59,SE,144,0.0,4.0,87,0.00,,,0.00,Weather View 32 v70,2013-01-23 10:25:00,
2013-01-23 02:34:00,36.3,32.8,29.59,NE,39,4.0,5.0,87,0.00,,,0.00,Weather View 32 v70,2013-01-23 10:34:00,
2013-01-23 02:39:00,36.5,33.0,29.56,SE,142,5.0,5.0,87,0.00,,,0.00,Weather View 32 v70,2013-01-23 10:39:00,
2013-01-23 02:45:00,36.7,33.2,29.56,West,268,5.0,8.0,87,0.00,,,0.00,Weather View 32 v70,2013-01-23 10:45:00,
2013-01-23 02:50:00,36.7,32.9,29.56,NE,47,0.0,8.0,86,0.00,,,0.00,Weather View 32 v70,2013-01-23 10:50:00,
2013-01-23 02:55:00,36.9,33.1,29.59,NE,47,0.0,8.0,86,0.00,,,0.00,Weather View 32 v70,2013-01-23 10:55:00,
2013-01-23 03:04:00,36.9,32.8,29.59,North,10,4.0,8.0,85,0.00,,,0.00,Weather View 32 v70,2013-01-23 11:04:00,
2013-01-23 03:10:00,37.0,32.9,29.56,West,264,0.0,8.0,85,0.00,,,0.00,Weather View 32 v70,2013-01-23 11:10:00,
2013-01-23 03:15:00,37.0,32.7,29.56,NE,36,0.0,8.0,84,0.00,,,0.00,Weather View 32 v70,2013-01-23 11:15:00,
2013-01-23 03:24:00,36.7,32.0,29.59,NE,36,0.0,8.0,83,0.00,,,0.00,Weather View 32 v70,2013-01-23 11:24:00,
2013-01-23 03:29:00,36.7,32.0,29.59,NE,36,0.0,8.0,83,0.00,,,0.00,Weather View 32 v70,2013-01-23 11:29:00,
2013-01-23 03:35:00,36.7,32.0,29.59,NE,37,0.0,8.0,83,0.00,,,0.00,Weather View 32 v70,2013-01-23 11:35:00,
2013-01-23 03:40:00,36.7,32.0,29.59,SSE,147,4.0,8.0,83,0.00,,,0.00,Weather View 32 v70,2013-01-23 11:40:00,
2013-01-23 03:49:00,36.7,32.0,29.59,SSE,147,0.0,4.0,83,0.00,,,0.00,Weather View 32 v70,2013-01-23 11:49:00,
2013-01-23 03:54:00,36.7,32.0,29.59,SSE,147,0.0,4.0,83,0.00,,,0.00,Weather View 32 v70,2013-01-23 11:54:00,
2013-01-23 04:00:00,36.7,32.0,29.59,SSE,147,2.0,4.0,83,0.00,,,0.00,Weather View 32 v70,2013-01-23 12:00:00,
2013-01-23 04:05:00,36.9,32.2,29.59,SSE,147,0.0,4.0,83,0.00,,,0.00,Weather View 32 v70,2013-01-23 12:05:00,
2013-01-23 04:14:00,36.9,32.2,29.59,SSE,147,3.0,4.0,83,0.00,,,0.00,Weather View 32 v70,2013-01-23 12:14:00,
2013-01-23 04:19:00,36.9,32.2,29.59,SSE,147,0.0,4.0,83,0.00,,,0.00,Weather View 32 v70,2013-01-23 12:19:00,
2013-01-23 04:25:00,36.9,32.5,29.59,SSE,147,0.0,4.0,84,0.00,,,0.00,Weather View 32 v70,2013-01-23 12:25:00,
2013-01-23 04:30:00,36.9,32.5,29.59,SSE,147,0.0,4.0,84,0.00,,,0.00,Weather View 32 v70,2013-01-23 12:30:00,
2013-01-23 04:35:00,36.9,32.5,29.59,SSE,147,0.0,4.0,84,0.00,,,0.00,Weather View 32 v70,2013-01-23 12:35:00,
2013-01-23 04:44:00,37.0,32.7,29.59,SSE,147,3.0,3.0,84,0.00,,,0.00,Weather View 32 v70,2013-01-23 12:44:00,
2013-01-23 04:50:00,37.2,33.1,29.59,SSE,147,0.0,3.0,85,0.00,,,0.00,Weather View 32 v70,2013-01-23 12:50:00,
2013-01-23 04:55:00,37.2,33.1,29.56,SSE,147,0.0,3.0,85,0.00,,,0.00,Weather View 32 v70,2013-01-23 12:55:00,
2013-01-23 05:00:00,37.2,32.8,29.56,SSE,147,0.0,3.0,84,0.00,,,0.00,Weather View 32 v70,2013-01-23 13:00:00,
2013-01-23 05:08:00,37.2,33.1,29.56,SSE,147,0.0,3.0,85,0.00,,,0.00,Weather View 32 v70,2013-01-23 13:08:00,
2013-01-23 05:15:00,37.0,32.7,29.59,SSE,147,0.0,3.0,84,0.00,,,0.00,Weather View 32 v70,2013-01-23 13:15:00,
2013-01-23 05:20:00,37.0,32.7,29.59,SSE,149,0.0,4.0,84,0.00,,,0.00,Weather View 32 v70,2013-01-23 13:20:00,
2013-01-23 05:29:00,37.0,32.7,29.56,SE,145,3.0,6.0,84,0.00,,,0.00,Weather View 32 v70,2013-01-23 13:29:00,
2013-01-23 05:34:00,36.9,32.5,29.56,SSE,162,4.0,6.0,84,0.00,,,0.00,Weather View 32 v70,2013-01-23 13:34:00,
2013-01-23 05:40:00,36.9,32.5,29.56,SE,145,5.0,6.0,84,0.00,,,0.00,Weather View 32 v70,2013-01-23 13:40:00,
2013-01-23 05:45:00,36.9,32.2,29.56,SE,142,4.0,6.0,83,0.00,,,0.00,Weather View 32 v70,2013-01-23 13:45:00,
2013-01-23 05:50:00,36.9,31.9,29.56,SSE,155,3.0,6.0,82,0.00,,,0.00,Weather View 32 v70,2013-01-23 13:50:00,
2013-01-23 05:59:00,36.7,30.8,29.53,SSE,157,5.0,6.0,79,0.00,,,0.00,Weather View 32 v70,2013-01-23 13:59:00,
2013-01-23 06:04:00,36.7,30.1,29.53,SSE,151,4.0,6.0,77,0.00,,,0.00,Weather View 32 v70,2013-01-23 14:04:00,
2013-01-23 06:10:00,36.5,29.6,29.56,SSE,150,0.0,6.0,76,0.00,,,0.00,Weather View 32 v70,2013-01-23 14:10:00,
2013-01-23 06:15:00,36.5,29.0,29.56,SSE,150,0.0,6.0,74,0.00,,,0.00,Weather View 32 v70,2013-01-23 14:15:00,
2013-01-23 06:24:00,36.5,28.0,0.00,SE,125,0.0,6.0,71,0.00,,,0.00,Weather View 32 v70,2013-01-23 14:24:00,
2013-01-23 06:29:00,36.5,27.6,29.56,SE,125,0.0,6.0,70,0.00,,,0.00,Weather View 32 v70,2013-01-23 14:29:00,
2013-01-23 06:35:00,36.5,27.6,29.56,SE,125,0.0,6.0,70,0.00,,,0.00,Weather View 32 v70,2013-01-23 14:35:00,
2013-01-23 06:40:00,36.3,27.5,29.56,SE,125,0.0,6.0,70,0.00,,,0.00,Weather View 32 v70,2013-01-23 14:40:00,
2013-01-23 06:45:00,36.3,27.5,29.56,SE,125,0.0,6.0,70,0.00,,,0.00,Weather View 32 v70,2013-01-23 14:45:00,
2013-01-23 06:54:00,36.3,27.5,29.53,SE,125,0.0,6.0,70,0.00,,,0.00,Weather View 32 v70,2013-01-23 14:54:00,
2013-01-23 07:00:00,36.1,26.9,29.53,SSE,154,0.0,6.0,69,0.00,,,0.00,Weather View 32 v70,2013-01-23 15:00:00,
2013-01-23 07:05:00,36.1,26.6,0.00,SSE,154,0.0,5.0,68,0.00,,,0.00,Weather View 32 v70,2013-01-23 15:05:00,
2013-01-23 07:14:00,36.1,25.1,29.53,East,93,3.0,5.0,64,0.00,,,0.00,Weather View 32 v70,2013-01-23 15:14:00,
2013-01-23 07:19:00,36.3,24.9,0.00,East,93,3.0,5.0,63,0.00,,,0.00,Weather View 32 v70,2013-01-23 15:19:00,
2013-01-23 07:25:00,36.3,24.1,29.53,SSE,159,4.0,5.0,61,0.00,,,0.00,Weather View 32 v70,2013-01-23 15:25:00,
2013-01-23 07:30:00,36.3,23.4,29.53,SSE,159,0.0,5.0,59,0.00,,,0.00,Weather View 32 v70,2013-01-23 15:30:00,
2013-01-23 07:35:00,36.1,22.8,29.53,SE,139,3.0,6.0,58,0.00,,,0.00,Weather View 32 v70,2013-01-23 15:35:00,
2013-01-23 07:44:00,36.3,21.7,29.53,SE,143,2.0,6.0,55,0.00,,,0.00,Weather View 32 v70,2013-01-23 15:44:00,
2013-01-23 07:50:00,36.3,21.7,29.53,SE,144,0.0,6.0,55,0.00,,,0.00,Weather View 32 v70,2013-01-23 15:50:00,
2013-01-23 07:55:00,36.3,21.7,29.53,SE,144,0.0,6.0,55,0.00,,,0.00,Weather View 32 v70,2013-01-23 15:55:00,
2013-01-23 08:00:00,36.3,21.7,29.53,SE,144,0.0,6.0,55,0.00,,,0.00,Weather View 32 v70,2013-01-23 16:00:00,
2013-01-23 08:09:00,36.1,21.9,29.53,SE,144,0.0,6.0,56,0.00,,,0.00,Weather View 32 v70,2013-01-23 16:09:00,
2013-01-23 08:15:00,36.3,22.5,29.53,SE,144,0.0,6.0,57,0.00,,,0.00,Weather View 32 v70,2013-01-23 16:15:00,
2013-01-23 08:20:00,36.3,22.5,29.53,SE,144,4.0,6.0,57,0.00,,,0.00,Weather View 32 v70,2013-01-23 16:20:00,
2013-01-23 08:25:00,36.5,22.7,29.53,SE,144,0.0,6.0,57,0.00,,,0.00,Weather View 32 v70,2013-01-23 16:25:00,
2013-01-23 08:34:00,36.7,21.6,29.53,SE,144,3.0,5.0,54,0.00,,,0.00,Weather View 32 v70,2013-01-23 16:34:00,
2013-01-23 08:39:00,36.7,21.1,29.50,SE,130,0.0,5.0,53,0.00,,,0.00,Weather View 32 v70,2013-01-23 16:39:00,
2013-01-23 08:45:00,36.9,20.4,0.00,SE,131,3.0,5.0,51,0.00,,,0.00,Weather View 32 v70,2013-01-23 16:45:00,
2013-01-23 08:50:00,36.9,19.9,29.50,ESE,110,0.0,5.0,50,0.00,,,0.00,Weather View 32 v70,2013-01-23 16:50:00,
2013-01-23 08:59:00,37.2,19.8,29.53,ESE,110,0.0,5.0,49,0.00,,,0.00,Weather View 32 v70,2013-01-23 16:59:00,
2013-01-23 09:04:00,37.2,19.8,29.53,ESE,110,0.0,5.0,49,0.00,,,0.00,Weather View 32 v70,2013-01-23 17:04:00,
2013-01-23 09:10:00,37.4,19.5,29.53,ESE,110,0.0,5.0,48,0.00,,,0.00,Weather View 32 v70,2013-01-23 17:10:00,
2013-01-23 09:19:00,37.4,20.4,0.00,ESE,110,0.0,5.0,50,0.00,,,0.00,Weather View 32 v70,2013-01-23 17:19:00,
2013-01-23 09:24:00,37.4,20.4,0.00,ESE,110,0.0,5.0,50,0.00,,,0.00,Weather View 32 v70,2013-01-23 17:24:00,
2013-01-23 09:29:00,37.6,20.6,29.53,ESE,110,0.0,5.0,50,0.00,,,0.00,Weather View 32 v70,2013-01-23 17:29:00,
2013-01-23 09:35:00,37.8,21.2,29.53,ESE,110,0.0,5.0,51,0.00,,,0.00,Weather View 32 v70,2013-01-23 17:35:00,
2013-01-23 09:40:00,37.9,21.4,0.00,ESE,110,0.0,4.0,51,0.00,,,0.00,Weather View 32 v70,2013-01-23 17:40:00,
2013-01-23 09:45:00,37.9,21.4,0.00,ESE,110,0.0,4.0,51,0.00,,,0.00,Weather View 32 v70,2013-01-23 17:45:00,
2013-01-23 09:54:00,37.9,21.9,29.53,ESE,110,0.0,0.0,52,0.00,,,0.00,Weather View 32 v70,2013-01-23 17:54:00,
2013-01-23 09:59:00,38.1,22.0,29.53,ESE,110,0.0,0.0,52,0.00,,,0.00,Weather View 32 v70,2013-01-23 17:59:00,
2013-01-23 10:05:00,38.1,22.5,29.53,ESE,110,0.0,0.0,53,0.00,,,0.00,Weather View 32 v70,2013-01-23 18:05:00,
2013-01-23 10:10:00,38.1,22.5,29.53,ESE,110,0.0,0.0,53,0.00,,,0.00,Weather View 32 v70,2013-01-23 18:10:00,
2013-01-23 10:19:00,38.3,22.6,29.53,ESE,110,0.0,0.0,53,0.00,,,0.00,Weather View 32 v70,2013-01-23 18:19:00,
2013-01-23 10:25:00,38.5,23.7,29.53,ESE,110,0.0,0.0,55,0.00,,,0.00,Weather View 32 v70,2013-01-23 18:25:00,
2013-01-23 10:30:00,38.5,24.1,29.53,ESE,110,0.0,0.0,56,0.00,,,0.00,Weather View 32 v70,2013-01-23 18:30:00,
2013-01-23 10:35:00,38.7,24.3,29.53,ESE,110,0.0,0.0,56,0.00,,,0.00,Weather View 32 v70,2013-01-23 18:35:00,
2013-01-23 10:44:00,38.8,24.0,29.53,ESE,110,0.0,0.0,55,0.00,,,0.00,Weather View 32 v70,2013-01-23 18:44:00,
2013-01-23 10:49:00,38.8,24.5,29.53,ESE,110,0.0,3.0,56,0.00,,,0.00,Weather View 32 v70,2013-01-23 18:49:00,
2013-01-23 10:55:00,39.0,24.2,29.53,ESE,110,0.0,3.0,55,0.00,,,0.00,Weather View 32 v70,2013-01-23 18:55:00,
2013-01-23 11:00:00,39.2,23.9,29.53,ESE,110,0.0,3.0,54,0.00,,,0.00,Weather View 32 v70,2013-01-23 19:00:00,
2013-01-23 11:09:00,39.2,24.4,29.53,ESE,110,0.0,3.0,55,0.00,,,0.00,Weather View 32 v70,2013-01-23 19:09:00,
2013-01-23 11:14:00,39.2,24.8,29.53,ESE,110,0.0,3.0,56,0.00,,,0.00,Weather View 32 v70,2013-01-23 19:14:00,
2013-01-23 11:20:00,39.2,24.8,29.53,ESE,110,0.0,3.0,56,0.00,,,0.00,Weather View 32 v70,2013-01-23 19:20:00,
2013-01-23 11:25:00,39.2,25.2,29.53,ESE,110,0.0,3.0,57,0.00,,,0.00,Weather View 32 v70,2013-01-23 19:25:00,
2013-01-23 11:30:00,39.4,25.8,29.53,ESE,110,0.0,3.0,58,0.00,,,0.00,Weather View 32 v70,2013-01-23 19:30:00,
2013-01-23 11:39:00,39.6,26.8,29.53,ESE,110,0.0,3.0,60,0.00,,,0.00,Weather View 32 v70,2013-01-23 19:39:00,
2013-01-23 11:44:00,39.6,27.2,29.53,ESE,110,0.0,3.0,61,0.00,,,0.00,Weather View 32 v70,2013-01-23 19:44:00,
2013-01-23 11:50:00,39.6,27.2,29.53,ESE,110,0.0,3.0,61,0.00,,,0.00,Weather View 32 v70,2013-01-23 19:50:00,
2013-01-23 11:55:00,39.4,27.4,29.53,ESE,110,0.0,3.0,62,0.00,,,0.00,Weather View 32 v70,2013-01-23 19:55:00,
2013-01-23 12:00:00,39.2,27.3,29.53,ESE,110,0.0,3.0,62,0.00,,,0.00,Weather View 32 v70,2013-01-23 20:00:00,
2013-01-23 12:09:00,39.0,27.5,29.53,ESE,110,0.0,2.0,63,0.00,,,0.00,Weather View 32 v70,2013-01-23 20:09:00,
2013-01-23 12:15:00,38.8,27.7,29.53,ESE,110,0.0,2.0,64,0.00,,,0.00,Weather View 32 v70,2013-01-23 20:15:00,
2013-01-23 12:24:00,38.8,28.1,29.50,ESE,110,3.0,3.0,65,0.00,,,0.00,Weather View 32 v70,2013-01-23 20:24:00,
2013-01-23 12:29:00,38.7,27.9,29.50,SSE,159,3.0,4.0,65,0.00,,,0.00,Weather View 32 v70,2013-01-23 20:29:00,
2013-01-23 12:35:00,38.7,28.3,29.50,SSE,162,0.0,4.0,66,0.00,,,0.00,Weather View 32 v70,2013-01-23 20:35:00,
2013-01-23 12:40:00,38.5,28.5,29.50,SSE,167,0.0,4.0,67,0.00,,,0.00,Weather View 32 v70,2013-01-23 20:40:00,
2013-01-23 12:45:00,38.5,28.5,29.50,SSE,167,3.0,4.0,67,0.00,,,0.00,Weather View 32 v70,2013-01-23 20:45:00,
2013-01-23 12:54:00,38.3,28.3,29.50,East,89,2.0,4.0,67,0.00,,,0.00,Weather View 32 v70,2013-01-23 20:54:00,
2013-01-23 12:59:00,38.3,28.3,29.50,South,180,0.0,4.0,67,0.00,,,0.00,Weather View 32 v70,2013-01-23 20:59:00,
2013-01-23 13:05:00,38.5,28.8,0.00,South,180,0.0,4.0,68,0.00,,,0.00,Weather View 32 v70,2013-01-23 21:05:00,
2013-01-23 13:10:00,38.5,28.8,29.50,South,180,0.0,4.0,68,0.00,,,0.00,Weather View 32 v70,2013-01-23 21:10:00,
2013-01-23 13:19:00,38.7,29.7,29.50,East,82,0.0,4.0,70,0.00,,,0.00,Weather View 32 v70,2013-01-23 21:19:00,
2013-01-23 13:24:00,38.7,30.1,29.50,East,82,0.0,4.0,71,0.00,,,0.00,Weather View 32 v70,2013-01-23 21:24:00,
2013-01-23 13:30:00,38.8,30.6,29.50,East,82,4.0,4.0,72,0.00,,,0.00,Weather View 32 v70,2013-01-23 21:30:00,
2013-01-23 13:35:00,38.7,31.1,29.50,SSE,156,3.0,4.0,74,0.00,,,0.00,Weather View 32 v70,2013-01-23 21:35:00,
2013-01-23 13:44:00,38.7,31.4,29.50,SSE,156,0.0,4.0,75,0.00,,,0.00,Weather View 32 v70,2013-01-23 21:44:00,
2013-01-23 13:49:00,38.7,31.7,29.50,SSE,156,0.0,4.0,76,0.00,,,0.00,Weather View 32 v70,2013-01-23 21:49:00,
2013-01-23 13:54:00,38.7,31.7,29.50,SSE,156,0.0,4.0,76,0.00,,,0.00,Weather View 32 v70,2013-01-23 21:54:00,
2013-01-23 14:00:00,38.7,31.7,29.50,SSE,156,0.0,4.0,76,0.00,,,0.00,Weather View 32 v70,2013-01-23 22:00:00,
2013-01-23 14:05:00,38.7,31.7,29.50,SSE,156,0.0,4.0,76,0.00,,,0.00,Weather View 32 v70,2013-01-23 22:05:00,
2013-01-23 14:13:00,38.7,32.1,29.50,SSE,156,0.0,4.0,77,0.00,,,0.00,Weather View 32 v70,2013-01-23 22:13:00,
2013-01-23 14:19:00,38.7,32.4,29.50,SSE,156,0.0,4.0,78,0.00,,,0.00,Weather View 32 v70,2013-01-23 22:19:00,
2013-01-23 14:25:00,38.8,32.6,29.50,SSE,156,0.0,4.0,78,0.00,,,0.00,Weather View 32 v70,2013-01-23 22:25:00,
2013-01-23 14:29:00,39.0,32.7,29.50,SSE,156,0.0,4.0,78,0.00,,,0.00,Weather View 32 v70,2013-01-23 22:29:00,
2013-01-23 14:35:00,39.0,32.7,0.00,SSE,156,0.0,4.0,78,0.00,,,0.00,Weather View 32 v70,2013-01-23 22:35:00,
2013-01-23 14:40:00,39.0,32.7,0.00,SSE,156,0.0,3.0,78,0.00,,,0.00,Weather View 32 v70,2013-01-23 22:40:00,
2013-01-23 14:49:00,39.2,32.9,0.00,SSE,156,0.0,3.0,78,0.00,,,0.00,Weather View 32 v70,2013-01-23 22:49:00,
2013-01-23 14:54:00,39.2,32.9,29.53,SSE,156,0.0,3.0,78,0.00,,,0.00,Weather View 32 v70,2013-01-23 22:54:00,
2013-01-23 15:00:00,39.2,33.2,0.00,SSE,156,0.0,3.0,79,0.00,,,0.00,Weather View 32 v70,2013-01-23 23:00:00,
2013-01-23 15:05:00,39.2,33.2,0.00,SSE,156,0.0,3.0,79,0.00,,,0.00,Weather View 32 v70,2013-01-23 23:05:00,
2013-01-23 15:10:00,39.4,33.7,0.00,SSE,156,0.0,3.0,80,0.00,,,0.00,Weather View 32 v70,2013-01-23 23:10:00,
2013-01-23 15:19:00,39.4,33.7,0.00,SSE,156,0.0,3.0,80,0.00,,,0.00,Weather View 32 v70,2013-01-23 23:19:00,
2013-01-23 15:25:00,39.4,33.7,0.00,SSE,156,0.0,3.0,80,0.00,,,0.00,Weather View 32 v70,2013-01-23 23:25:00,
2013-01-23 15:30:00,39.4,34.0,29.53,SSE,156,0.0,3.0,81,0.00,,,0.00,Weather View 32 v70,2013-01-23 23:30:00,
2013-01-23 15:39:00,39.4,34.0,29.53,SSE,156,0.0,3.0,81,0.00,,,0.00,Weather View 32 v70,2013-01-23 23:39:00,
2013-01-23 15:44:00,39.4,34.0,29.53,SSE,156,0.0,3.0,81,0.00,,,0.00,Weather View 32 v70,2013-01-23 23:44:00,
2013-01-23 15:49:00,39.6,34.2,29.53,SSE,156,0.0,3.0,81,0.00,,,0.00,Weather View 32 v70,2013-01-23 23:49:00,
2013-01-23 15:55:00,39.4,34.3,29.56,SSE,156,0.0,0.0,82,0.00,,,0.00,Weather View 32 v70,2013-01-23 23:55:00,
2013-01-23 16:00:00,39.4,34.3,29.56,SSE,156,0.0,0.0,82,0.00,,,0.00,Weather View 32 v70,2013-01-24 00:00:00,
2013-01-23 16:09:00,39.6,34.5,29.56,SSW,193,0.0,4.0,82,0.00,,,0.00,Weather View 32 v70,2013-01-24 00:09:00,
2013-01-23 16:14:00,39.6,34.5,29.56,SSW,193,0.0,4.0,82,0.00,,,0.00,Weather View 32 v70,2013-01-24 00:14:00,
2013-01-23 16:20:00,39.6,34.8,29.56,SSW,193,0.0,4.0,83,0.00,,,0.00,Weather View 32 v70,2013-01-24 00:20:00,
2013-01-23 16:29:00,39.7,35.0,29.56,SSW,193,0.0,4.0,83,0.00,,,0.00,Weather View 32 v70,2013-01-24 00:29:00,
2013-01-23 16:34:00,39.7,35.0,29.56,SSW,193,0.0,4.0,83,0.00,,,0.00,Weather View 32 v70,2013-01-24 00:34:00,
2013-01-23 16:39:00,39.7,35.0,29.56,SSW,193,0.0,4.0,83,0.00,,,0.00,Weather View 32 v70,2013-01-24 00:39:00,
2013-01-23 16:45:00,39.7,35.0,29.56,SSW,193,0.0,4.0,83,0.00,,,0.00,Weather View 32 v70,2013-01-24 00:45:00,
2013-01-23 16:50:00,39.7,35.3,29.56,SSW,193,0.0,4.0,84,0.00,,,0.00,Weather View 32 v70,2013-01-24 00:50:00,
2013-01-23 16:59:00,39.7,35.3,29.56,SSW,193,0.0,4.0,84,0.00,,,0.00,Weather View 32 v70,2013-01-24 00:59:00,
2013-01-23 17:04:00,39.7,35.3,29.56,SSW,193,0.0,4.0,84,0.00,,,0.00,Weather View 32 v70,2013-01-24 01:04:00,
2013-01-23 17:09:00,39.7,35.3,29.56,SSW,193,0.0,3.0,84,0.00,,,0.00,Weather View 32 v70,2013-01-24 01:09:00,
2013-01-23 17:15:00,39.7,35.3,29.56,SSE,155,0.0,3.0,84,0.00,,,0.00,Weather View 32 v70,2013-01-24 01:15:00,
2013-01-23 17:24:00,39.9,35.8,29.59,ESE,104,0.0,4.0,85,0.00,,,0.00,Weather View 32 v70,2013-01-24 01:24:00,
2013-01-23 17:29:00,39.9,35.8,29.59,South,181,0.0,4.0,85,0.00,,,0.00,Weather View 32 v70,2013-01-24 01:29:00,
2013-01-23 17:34:00,40.1,35.9,29.59,South,181,0.0,4.0,85,0.00,,,0.00,Weather View 32 v70,2013-01-24 01:34:00,
2013-01-23 17:40:00,40.1,35.9,29.59,South,181,0.0,4.0,85,0.00,,,0.00,Weather View 32 v70,2013-01-24 01:40:00,
2013-01-23 17:49:00,40.1,36.2,29.59,SW,216,0.0,4.0,86,0.00,,,0.00,Weather View 32 v70,2013-01-24 01:49:00,
2013-01-23 17:54:00,40.1,36.2,29.59,SW,215,0.0,4.0,86,0.00,,,0.00,Weather View 32 v70,2013-01-24 01:54:00,
2013-01-23 17:59:00,40.3,36.4,29.59,East,79,0.0,4.0,86,0.00,,,0.00,Weather View 32 v70,2013-01-24 01:59:00,
2013-01-23 18:04:00,40.3,36.4,29.59,SSW,192,0.0,4.0,86,0.00,,,0.00,Weather View 32 v70,2013-01-24 02:04:00,
2013-01-23 18:10:00,40.3,36.4,29.59,NE,41,0.0,4.0,86,0.00,,,0.00,Weather View 32 v70,2013-01-24 02:10:00,
2013-01-23 18:15:00,40.3,36.4,29.59,NE,41,0.0,4.0,86,0.00,,,0.00,Weather View 32 v70,2013-01-24 02:15:00,
2013-01-23 18:24:00,40.3,36.4,29.59,ESE,116,0.0,4.0,86,0.00,,,0.00,Weather View 32 v70,2013-01-24 02:24:00,
2013-01-23 18:29:00,40.3,36.4,29.59,SE,145,0.0,4.0,86,0.00,,,0.00,Weather View 32 v70,2013-01-24 02:29:00,
2013-01-23 18:35:00,40.5,36.9,29.59,SE,145,0.0,4.0,87,0.00,,,0.00,Weather View 32 v70,2013-01-24 02:35:00,
2013-01-23 18:40:00,40.5,36.9,29.62,SE,145,0.0,4.0,87,0.00,,,0.00,Weather View 32 v70,2013-01-24 02:40:00,
2013-01-23 18:45:00,40.5,36.9,29.62,SE,145,0.0,4.0,87,0.00,,,0.00,Weather View 32 v70,2013-01-24 02:45:00,
2013-01-23 18:54:00,40.5,36.9,29.62,SE,145,0.0,4.0,87,0.00,,,0.00,Weather View 32 v70,2013-01-24 02:54:00,
2013-01-23 18:59:00,40.5,36.9,29.62,SE,145,0.0,4.0,87,0.00,,,0.00,Weather View 32 v70,2013-01-24 02:59:00,
2013-01-23 19:04:00,40.5,36.9,29.62,SE,145,0.0,4.0,87,0.00,,,0.00,Weather View 32 v70,2013-01-24 03:04:00,
2013-01-23 19:10:00,40.5,36.9,29.62,SE,145,0.0,4.0,87,0.00,,,0.00,Weather View 32 v70,2013-01-24 03:10:00,
2013-01-23 19:15:00,40.5,36.9,29.62,SE,145,0.0,4.0,87,0.00,,,0.00,Weather View 32 v70,2013-01-24 03:15:00,
2013-01-23 19:24:00,40.6,37.1,29.62,SSW,196,0.0,4.0,87,0.00,,,0.00,Weather View 32 v70,2013-01-24 03:24:00,
2013-01-23 19:29:00,40.6,37.4,29.62,SSW,208,0.0,5.0,88,0.00,,,0.00,Weather View 32 v70,2013-01-24 03:29:00,
2013-01-23 19:34:00,40.6,37.4,29.62,SSW,206,0.0,5.0,88,0.00,,,0.00,Weather View 32 v70,2013-01-24 03:34:00,
2013-01-23 19:40:00,40.6,37.4,29.65,SSE,163,0.0,5.0,88,0.00,,,0.00,Weather View 32 v70,2013-01-24 03:40:00,
2013-01-23 19:45:00,40.6,37.4,29.65,SSE,150,0.0,6.0,88,0.00,,,0.00,Weather View 32 v70,2013-01-24 03:45:00,
2013-01-23 19:50:00,40.8,37.5,29.65,SE,137,0.0,6.0,88,0.00,,,0.00,Weather View 32 v70,2013-01-24 03:50:00,
2013-01-23 19:59:00,40.8,37.5,29.65,South,187,3.0,6.0,88,0.00,,,0.00,Weather View 32 v70,2013-01-24 03:59:00,
2013-01-23 20:04:00,40.8,37.5,29.65,SSW,213,4.0,6.0,88,0.00,,,0.00,Weather View 32 v70,2013-01-24 04:04:00,
2013-01-23 20:09:00,40.8,37.5,29.65,South,188,0.0,6.0,88,0.00,,,0.00,Weather View 32 v70,2013-01-24 04:09:00,
2013-01-23 20:14:00,40.8,37.5,29.65,South,186,3.0,6.0,88,0.00,,,0.00,Weather View 32 v70,2013-01-24 04:14:00,
2013-01-23 20:20:00,40.8,37.5,29.65,SW,216,4.0,7.0,88,0.00,,,0.00,Weather View 32 v70,2013-01-24 04:20:00,
2013-01-23 20:29:00,40.8,37.5,29.68,SW,225,3.0,10.0,88,0.00,,,0.00,Weather View 32 v70,2013-01-24 04:29:00,
2013-01-23 20:34:00,41.0,37.7,29.68,South,180,0.0,10.0,88,0.00,,,0.00,Weather View 32 v70,2013-01-24 04:34:00,
2013-01-23 20:39:00,40.8,37.8,29.68,South,180,0.0,10.0,89,0.00,,,0.00,Weather View 32 v70,2013-01-24 04:39:00,
2013-01-23 20:44:00,40.8,37.8,29.68,SSW,213,0.0,10.0,89,0.00,,,0.00,Weather View 32 v70,2013-01-24 04:44:00,
2013-01-23 20:50:00,40.8,37.8,29.68,SW,224,0.0,10.0,89,0.00,,,0.00,Weather View 32 v70,2013-01-24 04:50:00,
2013-01-23 20:55:00,40.8,37.8,29.68,SW,224,0.0,10.0,89,0.00,,,0.00,Weather View 32 v70,2013-01-24 04:55:00,
2013-01-23 21:04:00,41.0,38.0,29.68,South,185,0.0,10.0,89,0.00,,,0.00,Weather View 32 v70,2013-01-24 05:04:00,
2013-01-23 21:09:00,41.0,38.0,29.71,South,187,5.0,10.0,89,0.00,,,0.00,Weather View 32 v70,2013-01-24 05:09:00,
2013-01-23 21:14:00,41.0,38.0,29.71,SSW,205,3.0,10.0,89,0.00,,,0.00,Weather View 32 v70,2013-01-24 05:14:00,
2013-01-23 21:17:00,41.0,38.0,29.71,SSW,205,3.0,10.0,89,0.00,,,0.00,Weather View 32 v70,2013-01-24 05:17:00,
2013-01-23 21:25:00,41.0,38.0,29.71,SSW,193,0.0,7.0,89,0.00,,,0.00,Weather View 32 v70,2013-01-24 05:25:00,
2013-01-23 21:34:00,41.0,38.0,29.71,South,180,0.0,7.0,89,0.00,,,0.00,Weather View 32 v70,2013-01-24 05:34:00,
2013-01-23 21:39:00,41.0,38.0,29.71,South,180,0.0,7.0,89,0.00,,,0.00,Weather View 32 v70,2013-01-24 05:39:00,
2013-01-23 21:44:00,41.0,38.0,29.71,South,180,0.0,7.0,89,0.00,,,0.00,Weather View 32 v70,2013-01-24 05:44:00,
2013-01-23 21:50:00,41.0,38.3,29.71,South,180,0.0,7.0,90,0.00,,,0.00,Weather View 32 v70,2013-01-24 05:50:00,
2013-01-23 21:55:00,41.0,38.3,29.71,South,180,0.0,7.0,90,0.00,,,0.00,Weather View 32 v70,2013-01-24 05:55:00,
2013-01-23 22:00:00,41.0,38.3,29.71,South,186,0.0,7.0,90,0.00,,,0.00,Weather View 32 v70,2013-01-24 06:00:00,
2013-01-23 22:09:00,41.0,38.3,29.74,SSE,153,0.0,5.0,90,0.00,,,0.00,Weather View 32 v70,2013-01-24 06:09:00,
2013-01-23 22:14:00,41.0,38.3,29.74,SSE,153,0.0,5.0,90,0.00,,,0.00,Weather View 32 v70,2013-01-24 06:14:00,
2013-01-23 22:20:00,41.0,38.3,29.74,SSE,153,0.0,5.0,90,0.00,,,0.00,Weather View 32 v70,2013-01-24 06:20:00,
2013-01-23 22:25:00,41.0,38.3,29.74,SSE,153,0.0,5.0,90,0.00,,,0.00,Weather View 32 v70,2013-01-24 06:25:00,
2013-01-23 22:34:00,41.0,38.3,29.74,SSE,158,0.0,3.0,90,0.00,,,0.00,Weather View 32 v70,2013-01-24 06:34:00,
2013-01-23 22:39:00,41.0,38.3,29.74,SSE,158,0.0,3.0,90,0.00,,,0.00,Weather View 32 v70,2013-01-24 06:39:00,
2013-01-23 22:44:00,41.0,38.3,29.74,SSE,158,0.0,3.0,90,0.00,,,0.00,Weather View 32 v70,2013-01-24 06:44:00,
2013-01-23 22:50:00,41.0,38.3,29.74,SSE,158,0.0,3.0,90,0.00,,,0.00,Weather View 32 v70,2013-01-24 06:50:00,
2013-01-23 22:55:00,41.0,38.3,29.74,SSE,158,2.0,3.0,90,0.00,,,0.00,Weather View 32 v70,2013-01-24 06:55:00,
2013-01-23 23:00:00,41.0,38.3,29.74,East,85,0.0,5.0,90,0.00,,,0.00,Weather View 32 v70,2013-01-24 07:00:00,
2013-01-23 23:09:00,41.0,38.6,29.77,SE,131,0.0,5.0,91,0.00,,,0.00,Weather View 32 v70,2013-01-24 07:09:00,
2013-01-23 23:14:00,41.0,38.6,29.77,ENE,70,0.0,5.0,91,0.00,,,0.00,Weather View 32 v70,2013-01-24 07:14:00,
2013-01-23 23:20:00,41.0,38.6,29.77,ENE,70,0.0,5.0,91,0.00,,,0.00,Weather View 32 v70,2013-01-24 07:20:00,
2013-01-23 23:25:00,41.0,38.6,29.77,ENE,70,0.0,5.0,91,0.00,,,0.00,Weather View 32 v70,2013-01-24 07:25:00,
2013-01-23 23:30:00,41.0,38.6,29.77,ENE,70,0.0,5.0,91,0.00,,,0.00,Weather View 32 v70,2013-01-24 07:30:00,
2013-01-23 23:39:00,41.0,38.6,29.77,ENE,70,0.0,5.0,91,0.00,,,0.00,Weather View 32 v70,2013-01-24 07:39:00,
2013-01-23 23:44:00,41.0,38.6,29.77,ENE,70,0.0,5.0,91,0.00,,,0.00,Weather View 32 v70,2013-01-24 07:44:00,
2013-01-23 23:49:00,41.0,38.6,29.77,ESE,118,2.0,5.0,91,0.00,,,0.00,Weather View 32 v70,2013-01-24 07:49:00,
2013-01-23 23:55:00,41.0,38.6,29.77,SSE,150,0.0,5.0,91,0.00,,,0.00,Weather View 32 v70,2013-01-24 07:55:00,